Meath Environmental Platform

Observations for Trim Patrick St

Time AQI Temp °C Hum % Pres Pa CO μg/m³ H₂S μg/m³ NO μg/m³ NO₂ μg/m³ O₃ μg/m³ SO₂ μg/m³ PM1 μg/m³ PM2.5 μg/m³ PM10 μg/m³
Saturday 1 August 2026
04:16 2 11.4 78 38,460 0.37 0.56 4.09 16.91 25.33 0 5.43 9.58 10.53
04:15 2 11.4 78 38,460 0.36 1.05 4.04 15.67 26.65 0 7.14 12.39 13.63
04:14 2 11.4 78 38,460 0.37 1.31 4.02 15.99 23.38 0 6.29 11.03 12.13
04:13 2 11.5 77 38,460 0.38 1.39 4.02 17.1 25.3 0 5.43 11.06 12.17
04:12 2 11.5 77 38,460 0.36 2.11 4.01 18.14 32.7 0 7.14 11.74 12.91
04:11 2 11.5 78 38,460 0.36 1 3.93 17.59 20.97 0 7.14 12.37 13.6
04:10 2 11.5 78 38,460 0.38 0.67 3.96 19.53 18.38 0 6.29 10.99 12.09
04:09 2 11.5 78 38,460 0.37 1 3.99 15.56 29.36 0 6.29 10.99 12.09
04:08 2 11.6 78 38,460 0.37 1.83 3.96 15.72 23.29 0 6.29 10.27 11.29
04:07 2 11.5 78 38,460 0.37 1.91 4.03 20.46 40.51 0 7.14 12.41 13.65
04:06 2 11.6 78 38,460 0.38 2.76 3.98 20.1 33.96 0 6.29 10.29 11.32
04:05 2 11.6 77 38,460 0.37 0 4.03 14.52 24.73 0 6.29 11.08 12.19
04:04 2 11.6 78 38,460 0.36 0.39 4.02 12.31 26.19 0 5.43 9.62 10.58
04:03 2 11.6 78 38,460 0.37 1.93 4.05 21.03 35.54 0 7.14 11.03 12.13
04:02 2 11.6 77 38,460 0.37 1.06 4 14.5 28.78 0 6.29 10.39 11.43
04:01 2 11.6 78 38,460 0.36 1.13 3.97 17.96 27.39 0 7.14 10.27 11.3
04:00 2 11.6 78 38,460 0.35 1.5 3.92 14.24 27.91 0 6.29 11.7 12.87
03:59 2 11.7 78 38,460 0.37 1.55 3.85 16.38 34.37 0 5.43 10.31 11.34
03:58 2 11.7 78 38,460 0.36 1.83 3.8 20.07 34.81 0 6.29 10.28 11.31
03:57 2 11.7 78 38,460 0.38 1.58 3.9 14.15 27.84 0 6.29 12.39 13.63